Weather reports worldwide

Advertisment
Chania/Souda, Greece (16746): temperature & dewpoint: 20.09.2018 00:00:00 - 26.09.2018 00:00:00 (EEST)Chania/Souda, Greece (16746): wind speed: 20.09.2018 00:00:00 - 26.09.2018 00:00:00 (EEST)Chania/Souda, Greece (16746): wind direction: 20.09.2018 00:00:00 - 26.09.2018 00:00:00 (EEST)Chania/Souda, Greece (16746): reduced air pressure: 20.09.2018 00:00:00 - 26.09.2018 00:00:00 (EEST)Chania/Souda, Greece (16746): visibility: 20.09.2018 00:00:00 - 26.09.2018 00:00:00 (EEST)
Date & Time tt [°C] td [°C] ff [km/h] ff [kn] dd ppp [hPa] vv [km]
26.09.2018 00:00:00 19,4 17,8 9 5 NNE 1019,9 10
25.09.2018 23:00:00 20,0 16,0 9 5 N - 10
25.09.2018 22:00:00 21,0 16,0 18 10 NNE - 10
25.09.2018 21:00:00 20,6 15,6 29 16 NNE 1017,9 10
25.09.2018 20:00:00 21,0 17,0 28 15 NNE - 10
25.09.2018 19:00:00 22,0 18,0 22 12 NE - 10
25.09.2018 18:00:00 23,4 17,7 29 16 NNE 1016,3 10
25.09.2018 17:00:00 25,0 19,0 26 14 NE - 10
25.09.2018 16:00:00 26,0 20,0 29 16 NE - 10
25.09.2018 15:00:00 25,8 19,7 26 14 NNE 1015,8 10
25.09.2018 14:00:00 25,0 20,0 29 16 NE - 10
25.09.2018 13:00:00 25,0 20,0 28 15 NNE - 10
25.09.2018 12:00:00 25,6 20,1 18 10 NNE 1015,3 10
25.09.2018 11:00:00 25,0 20,0 15 8 NNW - 10
25.09.2018 10:00:00 25,0 21,0 24 13 W - 10
25.09.2018 09:00:00 23,8 20,8 22 12 W 1013,3 10
25.09.2018 08:00:00 22,0 20,0 18 10 W - 10
25.09.2018 07:00:00 21,0 19,0 9 5 NW - 10
25.09.2018 06:00:00 22,4 19,3 21 11 W 1012,2 10
25.09.2018 05:00:00 22,0 19,0 21 11 W - 10
25.09.2018 04:00:00 23,0 20,0 21 11 W - 10
25.09.2018 03:00:00 23,0 19,9 22 12 W 1012,9 10
25.09.2018 02:00:00 23,0 20,0 21 11 W - 10
25.09.2018 01:00:00 23,0 20,0 21 11 W - 10
25.09.2018 00:00:00 22,4 19,3 22 12 W 1013,6 10
24.09.2018 23:00:00 23,0 19,0 21 11 W - 10
24.09.2018 22:00:00 23,0 19,0 21 11 W - 10
24.09.2018 21:00:00 23,2 18,5 18 10 W 1013,4 10
24.09.2018 20:00:00 24,0 19,0 15 8 W - 10
24.09.2018 19:00:00 26,0 20,0 11 6 WNW - 10
24.09.2018 18:00:00 27,8 19,9 11 6 SE 1013,0 10
24.09.2018 17:00:00 29,0 19,0 16 9 WNW - 10
24.09.2018 16:00:00 30,0 15,0 11 6 WNW - 10
24.09.2018 15:00:00 29,4 15,5 11 6 NW 1014,2 10
24.09.2018 14:00:00 29,0 14,0 8 4 WNW - 10
24.09.2018 13:00:00 28,0 15,0 9 5 WNW - 10
24.09.2018 12:00:00 27,0 15,6 11 6 NW 1015,1 10
24.09.2018 11:00:00 25,0 17,0 8 4 WNW - 10
24.09.2018 10:00:00 23,0 18,0 8 4 WNW - 10
24.09.2018 09:00:00 20,6 18,0 0 0 N 1015,3 10
24.09.2018 08:00:00 18,0 17,0 0 0 N - 10
24.09.2018 07:00:00 18,0 17,0 0 0 N - 10
24.09.2018 06:00:00 18,0 17,3 0 0 N 1015,4 10
24.09.2018 05:00:00 18,0 18,0 0 0 N - 10
24.09.2018 04:00:00 18,0 17,0 0 0 N - 10
24.09.2018 03:00:00 18,8 17,8 0 0 N 1016,9 10
24.09.2018 02:00:00 19,0 18,0 0 0 N - 10
24.09.2018 01:00:00 19,0 18,0 0 0 N - 10
24.09.2018 00:00:00 19,4 18,1 0 0 N 1017,4 10
23.09.2018 23:00:00 20,0 18,0 0 0 N - 10
23.09.2018 22:00:00 20,0 18,0 0 0 N - 10
23.09.2018 21:00:00 21,0 19,1 0 0 N 1017,4 10
23.09.2018 20:00:00 23,0 19,0 0 0 N - 10
23.09.2018 19:00:00 25,0 19,0 13 7 W - 10
23.09.2018 18:00:00 25,8 18,3 13 7 WNW 1017,0 10
23.09.2018 17:00:00 27,0 18,0 13 7 WNW - 10
23.09.2018 16:00:00 29,0 18,0 9 5 WNW - 10
23.09.2018 15:00:00 28,4 17,4 13 7 NW 1017,1 10
23.09.2018 14:00:00 28,0 18,0 9 5 NW - 10
23.09.2018 13:00:00 28,0 18,0 9 5 NW - 10
23.09.2018 12:00:00 26,4 19,0 13 7 E 1017,4 10
23.09.2018 11:00:00 26,0 20,0 5 3 - - 10
23.09.2018 10:00:00 24,0 19,0 0 0 N - 10
23.09.2018 09:00:00 21,8 18,6 0 0 N 1016,9 10
23.09.2018 08:00:00 18,0 16,0 0 0 N - 10
23.09.2018 07:00:00 18,0 16,0 0 0 N - 10
23.09.2018 06:00:00 18,2 15,5 0 0 N 1016,5 10
23.09.2018 05:00:00 19,0 16,0 0 0 N - 10
23.09.2018 04:00:00 19,0 17,0 0 0 N - 10
23.09.2018 03:00:00 19,4 17,5 8 4 NW 1016,9 10
23.09.2018 02:00:00 20,0 19,0 5 3 WSW - 10
23.09.2018 01:00:00 20,0 19,0 9 5 NW - 10
23.09.2018 00:00:00 19,8 18,5 8 4 WNW 1017,4 10
22.09.2018 23:00:00 21,0 19,0 11 6 WNW - 10
22.09.2018 22:00:00 21,0 19,0 8 4 WNW - 10
22.09.2018 21:00:00 21,0 19,4 9 5 W 1016,3 10
22.09.2018 20:00:00 22,0 19,0 13 7 WNW - 10
22.09.2018 19:00:00 24,0 19,0 15 8 WNW - 10
22.09.2018 18:00:00 26,0 19,9 15 8 WNW 1015,8 10
22.09.2018 17:00:00 27,0 19,0 13 7 NW - 10
22.09.2018 16:00:00 27,0 19,0 13 7 W - 10
22.09.2018 15:00:00 26,8 18,0 8 4 WNW 1016,2 10
22.09.2018 14:00:00 27,0 18,0 11 6 WNW - 10
22.09.2018 13:00:00 27,0 19,0 11 6 NW - 10
22.09.2018 12:00:00 25,8 18,6 0 0 N 1016,6 10
22.09.2018 11:00:00 25,0 19,0 8 4 ENE - 10
22.09.2018 10:00:00 23,0 18,0 0 0 N - 10
22.09.2018 09:00:00 21,2 17,7 0 0 N 1015,8 10
22.09.2018 08:00:00 18,0 17,0 0 0 N - 10
22.09.2018 07:00:00 18,0 16,0 0 0 N - 10
22.09.2018 06:00:00 18,0 16,7 0 0 N 1015,4 10
22.09.2018 05:00:00 19,0 17,0 8 4 WNW - 10
22.09.2018 04:00:00 19,0 17,0 8 4 W - 10
22.09.2018 03:00:00 18,6 17,0 0 0 N 1015,6 10
22.09.2018 02:00:00 19,0 17,0 0 0 N - 10
22.09.2018 01:00:00 19,0 17,0 0 0 N - 10
22.09.2018 00:00:00 19,0 16,7 0 0 N 1015,9 10
21.09.2018 23:00:00 20,0 18,0 0 0 N - 10
21.09.2018 22:00:00 21,0 18,0 0 0 N - 10
21.09.2018 21:00:00 20,6 18,0 0 0 N 1015,4 10
21.09.2018 20:00:00 21,0 18,0 8 4 W - 10
21.09.2018 19:00:00 23,0 19,0 11 6 WNW - 10
21.09.2018 18:00:00 24,6 18,3 11 6 WNW 1014,9 10
21.09.2018 17:00:00 26,0 18,0 11 6 NNW - 10
21.09.2018 16:00:00 26,0 20,0 11 6 NNW - 10
21.09.2018 15:00:00 25,6 20,1 11 6 N 1015,4 10
21.09.2018 14:00:00 26,0 19,0 11 6 N - 10
21.09.2018 13:00:00 26,0 19,0 11 6 NNW - 10
21.09.2018 12:00:00 25,8 19,0 15 8 NW 1015,4 10
21.09.2018 11:00:00 23,0 19,0 11 6 NW - 10
21.09.2018 10:00:00 23,0 18,0 8 4 W - 10
21.09.2018 09:00:00 20,8 17,2 0 0 N 1015,0 10
21.09.2018 08:00:00 19,0 17,0 8 4 WSW - 10
21.09.2018 07:00:00 19,0 16,0 0 0 N - 10
21.09.2018 06:00:00 17,8 15,1 0 0 N 1014,6 10
21.09.2018 05:00:00 17,0 15,0 0 0 N - 10
21.09.2018 04:00:00 18,0 16,0 0 0 N - 10
21.09.2018 03:00:00 18,6 15,6 0 0 N 1015,3 10
21.09.2018 02:00:00 19,0 16,0 0 0 N - 10
21.09.2018 01:00:00 20,0 16,0 0 0 N - 10
21.09.2018 00:00:00 19,8 16,2 0 0 N 1015,4 10
20.09.2018 23:00:00 20,0 16,0 0 0 N - 10
20.09.2018 22:00:00 21,0 15,0 0 0 N - 10
20.09.2018 21:00:00 21,2 15,2 0 0 N 1015,1 10
20.09.2018 20:00:00 22,0 17,0 0 0 N - 10
20.09.2018 19:00:00 24,0 18,0 11 6 NW - 10
20.09.2018 18:00:00 25,4 17,5 11 6 NW 1014,7 10
20.09.2018 17:00:00 25,0 17,0 11 6 NW - 10
20.09.2018 16:00:00 25,0 18,0 15 8 NW - 10
20.09.2018 15:00:00 25,8 18,3 15 8 NNW 1015,3 10
20.09.2018 14:00:00 26,0 18,0 9 5 N - 10
20.09.2018 13:00:00 25,0 16,0 11 6 NW - 10
20.09.2018 12:00:00 25,8 18,3 8 4 NW 1016,5 10
20.09.2018 11:00:00 24,0 17,0 8 4 NNW - 10
20.09.2018 10:00:00 23,0 17,0 8 4 N - 10
20.09.2018 09:00:00 22,0 17,8 8 4 N 1016,3 10
20.09.2018 08:00:00 20,0 17,0 0 0 N - 10
20.09.2018 07:00:00 19,0 17,0 0 0 N - 10
20.09.2018 06:00:00 18,6 17,3 0 0 N 1015,9 10
20.09.2018 05:00:00 19,0 16,0 0 0 N - 10
20.09.2018 04:00:00 18,0 16,0 0 0 N - 10
20.09.2018 03:00:00 18,0 16,0 0 0 N 1016,5 10
20.09.2018 02:00:00 18,0 16,0 0 0 N - 10
20.09.2018 01:00:00 18,0 16,0 0 0 N - 10
20.09.2018 00:00:00 19,4 16,1 0 0 N 1017,0 10

tt = temperature
td = dewpoint
ff = wind speed
dd = wind direction
ppp = reduced air pressure
vv = visibility

Next stations